Weather History for Danville, VA

Change the Weather History Date:

Friday, November 2, 2012

  Actual Average Record
Temperature  
Mean Temperature 46 °F 54 °F  
Max Temperature 60 °F 65 °F 85 °F (1974)
Min Temperature 31 °F 43 °F 27 °F (1993)
Degree Days  
Heating Degree Days 19 11  
Month to date heating degree days 39 22  
Since 1 July heating degree days 281 255  
Cooling Degree Days 0 0  
Month to date cooling degree days 0 0  
Year to date cooling degree days 1594 1436  
Moisture  
Dew Point 28 °F    
Average Humidity 59    
Maximum Humidity 92    
Minimum Humidity 26    
Precipitation  
Precipitation T in 0.12 in 1.10 in (1997)
Month to date precipitation T 0.24  
Year to date precipitation 25.89 38.02  
Snow  
Snow 0.00 in - - ()
Month to date snowfall 0.0  
Since 1 July snowfall 0.0  
Since 1 September snowfall 0.0  
Snow Depth 0.00 in    
Sea Level Pressure  
Sea Level Pressure 29.87 in    
Wind  
Wind Speed 5 mph (West)    
Max Wind Speed 23 mph    
Max Gust Speed 30 mph    
Visibility 10 miles    
Events      
T = Trace of Precipitation, MM = Missing Value Source: NWS Daily Summary

Daily Weather History Graph

Daily Weather History Graph

Search for Another Location

Airport:

Trip Planner

Search our weather history database for the weather conditions in past years. The results will help you decide how hot, cold, wet, or windy it might be!

Date:

Astronomy

Nov. 02, 2012 Rise Set
Actual Time 7:42 AM EDT 6:19 PM EDT
Civil Twilight 7:15 AM EDT 6:45 PM EDT
Nautical Twilight 6:44 AM EDT 7:16 PM EDT
Astronomical Twilight 6:14 AM EDT 7:46 PM EDT
Moon 9:08 PM EDT (11/2) 10:58 AM EDT (11/2)
Length of Visible Light 11h 30m
Length of Day
10h 36m
Waning Gibbous, 87% of the Moon is Illuminated
Nov 2
Waning Gibbous
Nov 6
Last Quarter
Nov 13
New
Nov 20
First Quarter
Nov 28
Full

Hourly Weather History & Observations

Time (EDT) Temp. Windchill Dew Point Humidity Pressure Visibility Wind Dir Wind Speed Gust Speed Precip Events Conditions
12:53 AM 32.0 °F 28.7 °F 30.0 °F 92% 29.84 in 10.0 mi SSW 3.5 mph - N/A   Clear
1:53 AM 34.0 °F 28.8 °F 28.9 °F 82% 29.84 in 10.0 mi SW 5.8 mph - N/A   Clear
2:53 AM 33.1 °F 27.7 °F 28.0 °F 82% 29.85 in 10.0 mi SSW 5.8 mph - N/A   Clear
3:53 AM 30.9 °F 26.2 °F 27.0 °F 85% 29.86 in 10.0 mi SSW 4.6 mph - N/A   Clear
4:53 AM 34.0 °F 31.0 °F 27.0 °F 75% 29.86 in 10.0 mi SW 3.5 mph - N/A   Mostly Cloudy
5:53 AM 34.0 °F - 28.9 °F 82% 29.85 in 10.0 mi Calm Calm - N/A   Overcast
6:53 AM 37.0 °F - 30.0 °F 76% 29.86 in 10.0 mi Calm Calm - N/A   Overcast
7:53 AM 37.9 °F - 30.0 °F 73% 29.86 in 10.0 mi Calm Calm - N/A   Overcast
8:53 AM 39.9 °F - 30.9 °F 70% 29.86 in 10.0 mi Calm Calm - N/A   Overcast
9:53 AM 43.0 °F - 32.0 °F 65% 29.85 in 10.0 mi Calm Calm - N/A   Overcast
10:53 AM 46.0 °F - 34.0 °F 63% 29.84 in 10.0 mi Calm Calm - N/A   Overcast
11:53 AM 46.9 °F - 33.1 °F 59% 29.86 in 10.0 mi WNW 5.8 mph - 0.00 in   Overcast
12:53 PM 48.9 °F - 33.1 °F 54% 29.85 in 10.0 mi WNW 5.8 mph - N/A   Overcast
1:53 PM 57.9 °F - 33.1 °F 39% 29.83 in 10.0 mi NW 8.1 mph - N/A   Partly Cloudy
2:53 PM 59.0 °F - 28.0 °F 31% 29.83 in 10.0 mi WNW 16.1 mph 29.9 mph N/A   Clear
3:53 PM 60.1 °F - 27.0 °F 28% 29.84 in 10.0 mi West 13.8 mph - N/A   Clear
4:53 PM 59.0 °F - 25.0 °F 27% 29.85 in 10.0 mi WNW 10.4 mph - N/A   Clear
5:53 PM 55.9 °F - 26.1 °F 32% 29.86 in 10.0 mi West 4.6 mph - N/A   Clear
6:53 PM 55.0 °F - 23.0 °F 29% 29.89 in 10.0 mi WNW 3.5 mph - N/A   Clear
7:53 PM 45.0 °F 43.5 °F 26.1 °F 48% 29.92 in 10.0 mi NW 3.5 mph - N/A   Clear
8:53 PM 51.1 °F - 24.1 °F 35% 29.94 in 10.0 mi North 6.9 mph - N/A   Clear
9:53 PM 46.9 °F - 24.1 °F 41% 29.95 in 10.0 mi WNW 4.6 mph - N/A   Clear
10:53 PM 42.1 °F 40.2 °F 25.0 °F 51% 29.97 in 10.0 mi NW 3.5 mph - N/A   Clear
11:53 PM 36.0 °F - 27.0 °F 70% 29.97 in 10.0 mi Calm Calm - N/A   Clear